Weather reports worldwide

Advertisment
Amsterdam Airport, Netherlands (6240): temperature & dewpoint: 11.08.2018 14:00:00 - 17.08.2018 14:00:00 (CEST)Amsterdam Airport, Netherlands (6240): temperature 5cm: 11.08.2018 14:00:00 - 17.08.2018 14:00:00 (CEST)Amsterdam Airport, Netherlands (6240): wind speed & gusts: 11.08.2018 14:00:00 - 17.08.2018 14:00:00 (CEST)Amsterdam Airport, Netherlands (6240): wind direction: 11.08.2018 14:00:00 - 17.08.2018 14:00:00 (CEST)Amsterdam Airport, Netherlands (6240): reduced air pressure: 11.08.2018 14:00:00 - 17.08.2018 14:00:00 (CEST)Amsterdam Airport, Netherlands (6240): visibility: 11.08.2018 14:00:00 - 17.08.2018 14:00:00 (CEST)Amsterdam Airport, Netherlands (6240): precipitation: 11.08.2018 14:00:00 - 17.08.2018 14:00:00 (CEST)
Date & Time tt [°C] td [°C] tt 5cm [°C] ff [km/h] ff [kn] fx [km/h] fx [kn] dd ppp [hPa] vv [km] rr [mm]
17.08.2018 14:00:00 21,6 10,9 24,3 16 9 29 16 W 1019,2 10 0,0
17.08.2018 13:00:00 21,3 11,3 22,4 16 9 25 14 W 1018,8 10 0,0
17.08.2018 12:00:00 20,2 9,8 23,1 15 8 22 12 W 1018,7 10 0,0
17.08.2018 11:00:00 20,1 13,1 21,8 4 2 14 8 - 1018,3 10 0,0
17.08.2018 10:00:00 19,5 14,5 21,6 5 3 11 6 N 1018,0 10 0,0
17.08.2018 09:00:00 17,2 14,3 16,1 2 1 4 2 - 1017,4 10 0,0
17.08.2018 08:00:00 14,4 14,1 12,5 4 2 7 4 SSE 1017,0 10 0,0
17.08.2018 07:00:00 14,6 14,4 11,2 0 0 4 2 N 1016,4 10 0,0
17.08.2018 06:00:00 14,6 14,3 11,7 2 1 7 4 - 1015,9 10 0,0
17.08.2018 05:00:00 14,9 14,3 12,5 2 1 4 2 SSE 1016,0 10 0,0
17.08.2018 04:00:00 15,9 14,2 13,7 2 1 11 6 W 1015,8 10 0,0
17.08.2018 03:00:00 16,1 14,5 15,3 9 5 18 10 NW 1015,3 10 0,0
17.08.2018 02:00:00 16,9 14,9 15,8 9 5 18 10 SW 1015,2 10 0,0
17.08.2018 01:00:00 16,8 15,5 16,0 13 7 18 10 SSW 1015,4 10 0,4
17.08.2018 00:00:00 16,5 15,0 15,7 8 4 11 6 S 1015,4 10 0,0
16.08.2018 23:00:00 16,5 14,3 15,5 5 3 11 6 ESE 1014,8 10 0,0
16.08.2018 22:00:00 16,1 13,9 14,6 5 3 11 6 ESE 1014,9 10 0,0
16.08.2018 21:00:00 17,2 13,8 16,5 9 5 14 8 E 1014,4 10 0,0
16.08.2018 20:00:00 17,4 13,5 17,3 8 4 25 14 N 1014,7 10 0,0
16.08.2018 19:00:00 17,7 13,8 17,8 15 8 32 18 NW 1014,9 10 0,0
16.08.2018 18:00:00 17,9 14,7 18,7 24 13 43 23 NW 1015,3 10 0,0
16.08.2018 17:00:00 21,2 15,1 21,1 28 15 40 21 WSW 1014,7 10 0,0
16.08.2018 16:00:00 21,0 14,9 20,7 26 14 40 21 SW 1014,7 10 0,0
16.08.2018 15:00:00 20,7 15,1 20,9 26 14 40 21 SW 1014,6 10 0,0
16.08.2018 14:00:00 20,4 15,1 20,8 26 14 36 19 SSW 1014,6 10 0,0
16.08.2018 13:00:00 19,5 15,4 19,8 29 16 40 21 SSW 1014,8 10 0,0
16.08.2018 12:00:00 20,0 14,7 20,1 31 17 40 21 SSW 1014,8 10 0,0
16.08.2018 11:00:00 21,2 14,9 22,3 28 15 36 19 SSW 1014,7 10 0,0
16.08.2018 10:00:00 19,6 15,2 20,4 22 12 32 18 SSW 1014,7 10 0,0
16.08.2018 09:00:00 18,8 15,4 19,3 22 12 29 16 S 1014,8 10 0,0
16.08.2018 08:00:00 17,3 14,8 16,9 21 11 29 16 S 1015,1 10 0,0
16.08.2018 07:00:00 16,8 14,6 16,6 18 10 25 14 S 1015,3 10 0,0
16.08.2018 06:00:00 16,9 14,6 16,6 15 8 22 12 S 1015,3 10 0,0
16.08.2018 05:00:00 17,0 14,4 16,5 16 9 25 14 S 1015,3 10 0,0
16.08.2018 04:00:00 17,2 14,3 16,6 21 11 29 16 S 1015,6 10 0,0
16.08.2018 03:00:00 17,1 14,8 15,8 18 10 32 18 S 1015,9 10 0,0
16.08.2018 02:00:00 17,5 15,3 16,0 15 8 22 12 SSW 1016,5 10 0,0
16.08.2018 01:00:00 18,6 15,6 17,9 15 8 22 12 SSW 1016,8 10 0,0
16.08.2018 00:00:00 18,9 15,7 18,2 15 8 25 14 SW 1017,2 10 0,0
15.08.2018 23:00:00 18,7 15,9 17,7 13 7 18 10 SSW 1017,2 10 0,0
15.08.2018 22:00:00 19,1 15,8 18,1 13 7 22 12 SSW 1017,5 10 0,0
15.08.2018 21:00:00 19,7 15,1 19,1 18 10 32 18 SW 1017,5 10 0,0
15.08.2018 20:00:00 20,3 15,5 20,3 18 10 32 18 SW 1017,5 10 0,0
15.08.2018 19:00:00 20,6 15,3 20,8 24 13 36 19 SW 1017,7 10 0,0
15.08.2018 18:00:00 20,4 15,3 21,0 24 13 36 19 SW 1018,1 10 0,0
15.08.2018 17:00:00 20,3 14,7 20,3 22 12 32 18 SW 1018,3 10 0,0
15.08.2018 16:00:00 20,1 15,8 20,3 18 10 32 18 WSW 1018,4 10 0,0
15.08.2018 15:00:00 22,0 16,3 23,3 29 16 40 21 SW 1018,3 10 0,0
15.08.2018 14:00:00 22,4 16,0 22,3 26 14 36 19 SW 1018,1 10 0,0
15.08.2018 13:00:00 20,5 16,4 20,3 18 10 29 16 WSW 1018,1 10 0,0
15.08.2018 12:00:00 22,0 16,2 23,4 22 12 32 18 WSW 1017,9 10 0,0
15.08.2018 11:00:00 20,9 17,2 20,9 18 10 25 14 SW 1018,0 10 0,0
15.08.2018 10:00:00 20,8 18,1 22,2 18 10 25 14 SSW 1017,7 10 0,0
15.08.2018 09:00:00 20,2 17,9 21,3 16 9 22 12 SSW 1017,4 10 0,0
15.08.2018 08:00:00 18,7 17,3 18,5 13 7 22 12 SSW 1017,2 10 0,0
15.08.2018 07:00:00 17,4 16,4 16,7 13 7 18 10 SSW 1016,7 10 0,0
15.08.2018 06:00:00 18,0 16,4 17,5 15 8 22 12 SSW 1016,5 10 0,0
15.08.2018 05:00:00 18,6 16,5 18,2 13 7 22 12 SSW 1016,7 10 0,0
15.08.2018 04:00:00 18,8 16,7 18,2 13 7 18 10 SSW 1016,9 10 0,0
15.08.2018 03:00:00 18,2 15,7 17,4 9 5 14 8 S 1017,0 10 0,0
15.08.2018 02:00:00 17,8 15,2 17,0 11 6 14 8 S 1017,2 10 0,0
15.08.2018 01:00:00 17,1 14,9 15,4 11 6 14 8 S 1017,3 10 0,0
15.08.2018 00:00:00 17,9 14,3 16,5 9 5 18 10 SW 1017,2 10 0,0
14.08.2018 23:00:00 18,8 14,4 17,9 13 7 18 10 WSW 1017,1 10 0,0
14.08.2018 22:00:00 18,7 14,4 17,7 13 7 22 12 W 1017,1 10 0,0
14.08.2018 21:00:00 18,9 14,9 18,2 18 10 25 14 W 1016,8 10 0,0
14.08.2018 20:00:00 19,3 15,5 20,0 21 11 29 16 W 1016,3 10 0,0
14.08.2018 19:00:00 19,6 15,8 20,2 16 9 25 14 WNW 1016,3 10 0,0
14.08.2018 18:00:00 19,7 16,2 19,7 13 7 25 14 W 1016,1 10 0,0
14.08.2018 17:00:00 20,0 14,3 20,8 21 11 29 16 W 1016,2 10 0,0
14.08.2018 16:00:00 20,6 13,8 22,1 22 12 36 19 W 1015,9 10 0,0
14.08.2018 15:00:00 22,6 14,4 24,5 24 13 36 19 WNW 1015,5 10 0,0
14.08.2018 14:00:00 21,7 13,7 24,8 24 13 43 23 WNW 1014,9 10 0,0
14.08.2018 13:00:00 21,3 14,6 22,4 24 13 36 19 WNW 1014,4 10 0,0
14.08.2018 12:00:00 20,7 13,4 22,6 24 13 43 23 WNW 1014,0 10 0,0
14.08.2018 11:00:00 19,5 13,7 21,2 26 14 36 19 WNW 1013,4 10 0,0
14.08.2018 10:00:00 19,1 14,6 21,0 26 14 40 21 WNW 1012,7 10 0,0
14.08.2018 09:00:00 18,2 15,1 17,7 21 11 36 19 WNW 1012,0 10 0,0
14.08.2018 08:00:00 17,9 14,8 17,5 24 13 32 18 WNW 1011,2 10 0,0
14.08.2018 07:00:00 16,9 14,7 15,9 24 13 36 19 WNW 1010,3 10 0,0
14.08.2018 06:00:00 17,1 15,1 16,3 22 12 32 18 WNW 1009,7 10 0,0
14.08.2018 05:00:00 16,8 15,8 16,4 28 15 36 19 W 1009,2 10 0,2
14.08.2018 04:00:00 17,7 16,5 17,3 24 13 36 19 WNW 1008,8 10 0,5
14.08.2018 03:00:00 18,6 15,8 18,0 18 10 29 16 W 1008,3 10 0,0
14.08.2018 02:00:00 18,4 15,7 17,8 16 9 22 12 W 1008,3 10 0,0
14.08.2018 01:00:00 18,2 16,1 17,6 15 8 22 12 W 1008,1 10 0,0
14.08.2018 00:00:00 18,2 15,9 17,3 16 9 22 12 W 1007,7 10 0,0
13.08.2018 23:00:00 18,3 16,1 17,7 16 9 29 16 W 1007,2 10 0,0
13.08.2018 22:00:00 18,4 15,4 17,8 15 8 25 14 WSW 1007,0 10 0,0
13.08.2018 21:00:00 18,6 15,5 17,9 18 10 29 16 W 1006,8 10 0,0
13.08.2018 20:00:00 19,2 15,3 19,6 24 13 32 18 W 1006,3 10 0,0
13.08.2018 19:00:00 20,4 15,3 21,1 22 12 36 19 W 1005,9 10 0,0
13.08.2018 18:00:00 19,2 16,3 18,8 24 13 36 19 W 1005,9 10 0,3
13.08.2018 17:00:00 20,0 16,9 21,1 15 8 25 14 W 1005,5 10 0,0
13.08.2018 16:00:00 19,5 17,1 20,4 9 5 22 12 WNW 1005,4 10 0,0
13.08.2018 15:00:00 18,3 17,1 18,3 11 6 18 10 W 1005,1 10 0,7
13.08.2018 14:00:00 18,5 16,6 19,5 15 8 25 14 W 1005,4 10 0,3
13.08.2018 13:00:00 18,5 16,5 18,8 16 9 29 16 WSW 1005,5 10 0,0
13.08.2018 12:00:00 19,9 15,3 20,5 21 11 32 18 WSW 1005,4 10 0,0
13.08.2018 11:00:00 21,8 16,8 23,1 18 10 32 18 WSW 1004,9 10 0,0
13.08.2018 10:00:00 21,4 16,2 21,8 21 11 32 18 SSW 1004,8 10 0,0
13.08.2018 09:00:00 19,8 16,2 20,1 9 5 14 8 S 1004,9 10 0,0
13.08.2018 08:00:00 19,0 16,0 17,6 9 5 14 8 SSW 1005,0 10 0,0
13.08.2018 07:00:00 18,2 16,3 17,0 4 2 7 4 - 1004,7 10 0,0
13.08.2018 06:00:00 18,3 16,4 17,0 5 3 11 6 ESE 1005,0 10 0,0
13.08.2018 05:00:00 18,3 15,9 17,0 8 4 14 8 NE 1005,2 10 0,0
13.08.2018 04:00:00 18,3 16,1 17,6 8 4 14 8 NE 1005,8 10 0,0
13.08.2018 03:00:00 18,8 15,4 17,4 5 3 11 6 N 1006,6 10 0,0
13.08.2018 02:00:00 19,5 15,5 17,9 8 4 11 6 N 1007,3 10 0,0
13.08.2018 01:00:00 19,8 15,6 17,9 4 2 7 4 - 1007,7 10 0,0
13.08.2018 00:00:00 20,2 14,7 18,0 5 3 18 10 NNW 1007,9 10 0,0
12.08.2018 23:00:00 19,5 14,7 17,5 9 5 11 6 ENE 1008,5 10 0,0
12.08.2018 22:00:00 19,3 14,8 17,5 8 4 7 4 E 1009,1 10 0,0
12.08.2018 21:00:00 21,4 14,6 19,8 8 4 7 4 E 1009,3 10 0,0
12.08.2018 20:00:00 23,5 15,1 22,3 4 2 14 8 N 1009,4 10 0,0
12.08.2018 19:00:00 24,2 11,4 23,5 11 6 25 14 SW 1010,1 10 0,0
12.08.2018 18:00:00 24,7 10,7 24,3 16 9 29 16 SSW 1010,8 10 0,0
12.08.2018 17:00:00 25,3 10,7 25,6 21 11 36 19 SSW 1011,3 10 0,0
12.08.2018 16:00:00 25,7 11,0 27,9 26 14 43 23 SSW 1012,0 10 0,0
12.08.2018 15:00:00 26,3 11,7 28,4 24 13 43 23 SSW 1012,8 10 0,0
12.08.2018 14:00:00 24,3 10,8 25,5 28 15 40 21 SSW 1013,5 10 0,0
12.08.2018 13:00:00 23,8 10,5 25,3 29 16 40 21 SSW 1013,9 10 0,0
12.08.2018 12:00:00 23,7 11,2 24,0 26 14 36 19 SSW 1014,4 10 0,0
12.08.2018 11:00:00 21,4 11,6 21,9 24 13 32 18 S 1014,7 10 0,0
12.08.2018 10:00:00 19,1 11,7 19,9 21 11 29 16 S 1015,0 10 0,0
12.08.2018 09:00:00 18,2 11,2 18,2 16 9 22 12 S 1015,4 10 0,0
12.08.2018 08:00:00 16,4 11,1 16,0 13 7 22 12 SSE 1015,8 10 0,0
12.08.2018 07:00:00 15,2 11,0 14,8 13 7 22 12 SE 1016,2 10 0,0
12.08.2018 06:00:00 15,1 11,0 14,7 15 8 25 14 SSE 1016,8 10 0,0
12.08.2018 05:00:00 15,4 10,5 14,7 15 8 25 14 S 1017,3 10 0,0
12.08.2018 04:00:00 15,1 9,6 14,0 13 7 18 10 SSE 1017,9 10 0,0
12.08.2018 03:00:00 14,3 10,0 12,9 9 5 14 8 SSE 1018,8 10 0,0
12.08.2018 02:00:00 13,7 10,3 11,7 9 5 14 8 SSE 1019,4 10 0,0
12.08.2018 01:00:00 13,3 10,7 9,9 5 3 11 6 SSE 1019,9 10 0,0
12.08.2018 00:00:00 12,9 10,3 10,0 9 5 11 6 SE 1020,4 10 0,0
11.08.2018 23:00:00 13,6 10,1 8,5 5 3 7 4 SSE 1020,9 10 0,0
11.08.2018 22:00:00 14,7 8,9 9,6 4 2 14 8 - 1021,3 10 0,0
11.08.2018 21:00:00 15,9 8,9 14,2 13 7 22 12 WSW 1021,7 10 0,0
11.08.2018 20:00:00 17,6 9,4 17,2 18 10 25 14 WSW 1021,9 10 0,0
11.08.2018 19:00:00 18,3 8,7 19,6 18 10 32 18 WSW 1022,3 10 0,0
11.08.2018 18:00:00 19,1 9,8 20,5 22 12 36 19 WSW 1022,3 10 0,0
11.08.2018 17:00:00 18,5 9,3 19,8 24 13 32 18 W 1022,5 10 0,0
11.08.2018 16:00:00 19,0 9,2 21,8 24 13 32 18 W 1022,6 10 0,0
11.08.2018 15:00:00 19,7 9,3 23,9 26 14 36 19 WNW 1022,5 10 0,0
11.08.2018 14:00:00 19,5 9,7 20,2 24 13 36 19 W 1022,3 10 0,0

tt = temperature
td = dewpoint
tt 5cm = temperature 5cm
ff = wind speed
fx = gusts
dd = wind direction
ppp = reduced air pressure
vv = visibility
rr = precipitation

Next stations